TimeEET,TemperatureF,Dew PointF,Humidity,Sea Level PressureIn,VisibilityMPH,Wind Direction,Wind SpeedMPH,Gust SpeedMPH,PrecipitationIn,Events,Conditions,WindDirDegrees,DateUTC
12:00 AM,66.2,57.2,73,29.80,-9999.0,WSW,1.2,-,N/A,,Clear,240,2013-04-27 22:00:00
1:00 AM,62.6,57.2,82,29.80,-9999.0,WSW,1.2,-,N/A,,Clear,240,2013-04-27 23:00:00
2:00 AM,62,55,70,29.81,6,SSW,2.3,,,,,210,2013-04-28 00:00:00
2:00 AM,62.6,55.4,77,29.80,-9999.0,SSW,2.3,-,N/A,,Clear,210,2013-04-28 00:00:00
3:00 AM,62.6,55.4,77,29.80,-9999.0,SSW,2.3,-,N/A,,Clear,210,2013-04-28 01:00:00
4:00 AM,60.8,55.4,82,29.80,-9999.0,South,4.6,-,N/A,,Clear,170,2013-04-28 02:00:00
5:00 AM,59.0,53.6,82,29.80,-9999.0,SSE,2.3,-,N/A,,Clear,150,2013-04-28 03:00:00
6:00 AM,59.0,53.6,82,29.83,-9999.0,ESE,1.2,-,N/A,,Clear,110,2013-04-28 04:00:00
7:00 AM,69.8,51.8,53,29.83,-9999.0,SSE,2.3,-,N/A,,Clear,160,2013-04-28 05:00:00
8:00 AM,78,46,21,29.85,6,SSE,9.2,,,,,150,2013-04-28 06:00:00
8:00 AM,78.8,46.4,32,29.83,-9999.0,SSE,9.2,-,N/A,,Clear,150,2013-04-28 06:00:00
9:00 AM,86.0,35.6,17,29.83,-9999.0,SSE,9.2,-,N/A,,Clear,150,2013-04-28 07:00:00
10:00 AM,93.2,33.8,12,29.86,-9999.0,SE,5.8,-,N/A,,Clear,130,2013-04-28 08:00:00
11:00 AM,98.6,30.2,9,29.86,-9999.0,ESE,9.2,-,N/A,,Clear,120,2013-04-28 09:00:00
12:00 PM,95.0,48.2,20,29.83,-9999.0,North,11.5,-,N/A,,Clear,10,2013-04-28 10:00:00
1:00 PM,95.0,42.8,16,29.83,-9999.0,North,11.5,-,N/A,,Clear,10,2013-04-28 11:00:00
2:00 PM,92,46,12,29.83,6,NNE,12.7,,,,,20,2013-04-28 12:00:00
2:00 PM,91.4,46.4,21,29.83,-9999.0,NNE,12.7,-,N/A,,Clear,20,2013-04-28 12:00:00
3:00 PM,93.2,41.0,16,29.80,4.3,NNE,16.1,-,N/A,,Unknown,30,2013-04-28 13:00:00
4:00 PM,91.4,44.6,20,29.80,3.7,NNE,16.1,-,N/A,,Unknown,30,2013-04-28 14:00:00
5:00 PM,87.8,44.6,22,29.80,3.7,NE,15.0,-,N/A,,Unknown,40,2013-04-28 15:00:00
6:00 PM,84.2,46.4,27,29.80,3.7,NE,12.7,-,N/A,,Unknown,40,2013-04-28 16:00:00
7:00 PM,78.8,51.8,39,29.83,3.7,NE,13.8,-,N/A,,Unknown,40,2013-04-28 17:00:00
8:00 PM,75,54,37,29.85,4,NE,13.8,,,,Blowing Sand,50,2013-04-28 18:00:00
8:00 PM,75.2,53.6,47,29.83,3.7,NE,13.8,-,N/A,,Unknown,50,2013-04-28 18:00:00
9:00 PM,77.0,50.0,39,29.86,3.7,NE,13.8,-,N/A,,Unknown,50,2013-04-28 19:00:00
10:00 PM,73.4,55.4,53,29.86,-9999.0,NE,10.4,-,N/A,,Clear,50,2013-04-28 20:00:00
11:00 PM,71.6,55.4,57,29.86,-9999.0,ENE,8.1,-,N/A,,Clear,60,2013-04-28 21:00:00